Strona główna
METAR-TAF:

METAR-TAF

Lotnisko :

Platforma wiertnicza

K13-a, Holandia

Szerokość geograficzna: 53-13-04N, Długość geograficzna: 3-13-13E, wysokość: 31 m

Aktualna obserwacja pogody

Raport powstał 17 minut temu, godzina 05:55 UTC
Wiatr 16 kt od zachód
Temperatura 6°C
Wilgotność 75%
Ciśnienie 1012 hPa

METAR: EHJR 280555Z AUTO 26016KT //// // ///////// 06/02 Q1012 RE// W08/H20

czas: 07:12 (06:12 UTC)


TAF: brakujący

Obserwacja i prognoza pogody dla ponad 4000 lotnisk (raport METAR i TAF).

Dostępne stacje oznaczono żółtymi i czerwonymi punktami na mapie.

Najedź kursorem aby zobaczyć nazwę stacji.

Kliknij aby zobaczyć obserwacje i prognozy pogody.

Aby zmienić mapę: kliknij na zielony przycisk z czarnym krzyżykiem, aby powiększyć; na zielony przycisk z myślnikiem, aby pomniejszyć; na zielone strzałki, aby przejść do map sąsiednich.


METAR-TAF: